This demonstration page uses our WeatherBlox Daily Observations layout. Learn more.

Left ArrowRight Arrow

41.12389, -100.76542

Hourly Observations for March 16, 2018

Temp ( °F °C ) Dew Point ( °F °C ) Humidity (%) Winds ( mph kmh ) Pressure ( in mb ) Visibility ( mi km ) Precip ( " mm )
12:53 am 00:53 Mostly Clear 44 6.7 27 -2.8 51 51 E 23 37 29.44 997 10 16 0.00 0.00
1:53 am 01:53 Clear 44 6.7 28 -2.2 53 53 E 24 39 29.41 996 10 16 0.00 0.00
2:53 am 02:53 Clear 44 6.7 28 -2.2 53 53 E 28 44 29.40 996 10 16 0.00 0.00
3:53 am 03:53 Clear 43 6.1 29 -1.7 58 58 E 18 30 29.39 995 10 16 0.00 0.00
4:53 am 04:53 Mostly Clear 43 6.1 30 -1.1 60 60 E 25 41 29.40 996 10 16 0.00 0.00
5:53 am 05:53 Cloudy 43 6.1 32 0 65 65 E 16 26 29.44 997 10 16 0.00 0.00
6:08 am 06:08 Cloudy 44 6.7 33 0.6 65 65 E 7 11 29.50 999 10 16 0.00 0.00
6:53 am 06:53 Cloudy with Light Rain 44 6.7 35 1.7 71 71 E 18 30 29.47 998 10 16 0.00 0.03
7:53 am 07:53 Cloudy with Light Rain 41 5 35 1.7 79 79 E 14 22 29.51 999 10 16 0.00 0.03
8:41 am 08:41 Cloudy with Rain 39 3.9 35 1.7 86 86 NE 13 20 29.62 1003 3 5 0.06 1.52
8:53 am 08:53 Cloudy with Light Rain 38 3.3 35 1.7 89 89 NNE 14 22 29.54 1000 5 8 0.09 2.29
9:35 am 09:35 Cloudy 38 3.3 34 1.1 86 86 NE 15 24 29.62 1003 9 14 0.00 0.03
9:53 am 09:53 Cloudy with Rain 37 2.8 34 1.1 89 89 NNE 14 22 29.57 1001 5 8 0.01 0.25
10:06 am 10:06 Cloudy with Rain 37 2.8 34 1.1 89 89 NNE 12 19 29.62 1003 3 4 0.04 1.02
10:18 am 10:18 Cloudy with Heavy Rain 36 2.2 33 0.6 89 89 NNE 15 24 29.62 1003 2 2 0.09 2.29
10:32 am 10:32 Cloudy with Rain 36 2.2 33 0.6 89 89 NNE 12 19 29.62 1003 2 3 0.16 4.06
10:53 am 10:53 Cloudy with Light Rain 36 2.2 33 0.6 89 89 NNE 13 20 29.61 1003 6 10 0.17 4.32
11:11 am 11:11 Cloudy with Light Rain 36 2.2 34 1.1 93 93 NNE 14 22 29.65 1004 3 4 0.01 0.25
11:22 am 11:22 Cloudy with Light Rain 36 2.2 34 1.1 93 93 NNE 17 28 29.68 1005 2 2 0.02 0.51
11:32 am 11:32 Cloudy with Rain 36 2.2 34 1.1 93 93 NNE 14 22 29.68 1005 2 2 0.04 1.02
11:39 am 11:39 Cloudy with Heavy Rain 36 2.2 33 0.6 89 89 NNE 16 26 29.68 1005 1 2 0.08 2.03
11:46 am 11:46 Cloudy with Rain 36 2.2 33 0.6 89 89 NNE 14 22 29.68 1005 2 2 0.09 2.29
11:53 am 11:53 Cloudy with Rain 36 2.2 33 0.6 89 89 NNE 14 22 29.65 1004 2 2 0.12 3.05
11:58 am 11:58 Cloudy with Light Rain 36 2.2 33 0.6 89 89 NNE 15 24 29.68 1005 2 3 0.00 0.03
12:03 pm 12:03 Cloudy with Light Rain 36 2.2 33 0.6 89 89 NNE 14 22 29.68 1005 3 5 0.00 0.03
12:20 pm 12:20 Cloudy with Light Rain 36 2.2 33 0.6 89 89 N 13 20 29.71 1006 3 5 0.01 0.25
12:53 pm 12:53 Cloudy with Light Rain 35 1.7 33 0.6 93 93 N 12 19 29.68 1005 4 6 0.01 0.25
1:49 pm 13:49 Cloudy with Light Rain 36 2 34 1 93 93 N 15 24 29.77 1008 5 8 0.00 0.03
1:53 pm 13:53 Cloudy with Light Rain 36 2.2 33 0.6 89 89 N 15 24 29.70 1006 6 10 0.00 0.03
2:07 pm 14:07 Cloudy with Light Rain 36 2.2 33 0.6 89 89 N 12 19 29.77 1008 7 11 0.00 0.03
2:14 pm 14:14 Cloudy with Light Rain 36 2.2 33 0.6 89 89 N 12 19 29.77 1008 9 14 0.00 0.03
2:53 pm 14:53 Cloudy with Light Rain 36 2.2 33 0.6 89 89 N 15 24 29.71 1006 8 13 0.00 0.03
3:02 pm 15:02 Cloudy with Light Rain 36 2.2 32 0 86 86 N 16 26 29.77 1008 10 16 0.00 0.03
3:53 pm 15:53 Cloudy 35 1.7 31 -0.6 85 85 N 15 24 29.75 1007 10 16 0.00 0.03
4:10 pm 16:10 Cloudy 35 1.7 32 0 89 89 N 9 15 29.83 1010 10 16 0.00 0.00
4:34 pm 16:34 Cloudy 35 1.7 31 -0.6 85 85 NNW 10 17 29.83 1010 8 13 0.00 0.00
4:53 pm 16:53 Cloudy 35 1.7 31 -0.6 85 85 NNW 14 22 29.79 1009 10 16 0.00 0.00
5:53 pm 17:53 Cloudy with Light Snow 34 1.1 30 -1.1 85 85 NNW 12 19 29.81 1009 7 11 0.01 0.25
6:10 pm 18:10 Cloudy with Light Snow 34 1.1 30 -1.1 85 85 NNW 8 13 29.88 1012 3 5 0.01 0.25
6:32 pm 18:32 Cloudy with Light Snow 34 1.1 30 -1.1 85 85 NNW 12 19 29.88 1012 3 4 0.01 0.25
6:51 pm 18:51 Cloudy with Light Snow 34 1 30 -1 87 87 NNW 10 17 29.88 1012 1 2 0.01 0.25
6:53 pm 18:53 Cloudy with Light Snow 33 0.6 30 -1.1 89 89 NNW 10 17 29.84 1011 1 2 0.01 0.25
6:55 pm 18:55 Cloudy with Light Snow 33 0.6 30 -1.1 89 89 NNW 9 15 29.91 1013 1 1 0.00 0.03
7:11 pm 19:11 Mostly Cloudy with Snow 33 0.6 31 -0.6 92 92 NW 7 11 29.91 1013 1 1 0.02 0.51
7:37 pm 19:37 Cloudy with Light Snow 32 0 31 -0.6 96 96 NNW 8 13 29.94 1014 1 1 0.05 1.27
7:49 pm 19:49 Cloudy with Light Snow 32 0 30 -1.1 92 92 NW 8 13 29.87 1012 2 2 0.06 1.52
7:58 pm 19:58 Cloudy with Light Snow 32 0 30 -1.1 92 92 NNW 6 9 29.94 1014 3 5 0.00 0.03
8:07 pm 20:07 Cloudy with Light Snow 32 0 30 -1.1 92 92 NNW 7 11 29.94 1014 5 8 0.00 0.03
8:53 pm 20:53 Cloudy 32 0 29 -1.7 88 88 NNW 5 7 29.89 1012 10 16 0.00 0.03
9:53 pm 21:53 Cloudy 32 0 29 -1.7 88 88 N 6 9 29.91 1013 10 16 0.00 0.00
10:53 pm 22:53 Cloudy 33 0.6 29 -1.7 85 85 NW 9 15 29.93 1014 10 16 0.00 0.00
11:53 pm 23:53 Cloudy 31 -0.6 28 -2.2 89 89 WNW 7 11 29.96 1015 10 16 0.00 0.03

Powered by AerisWeather